LEOIR Weather Reports


time (UTC)temp
C
wind
direction
speed
KPH
gust
KPH
rain 1hr
cm
rain 24hr
cm
rain mn
cm
humidity
%
barometer
mb
20260905234557 13 83 1.6 9.7 0.00 0.36 0.00 83 1013.6
20260905233108 13 86 0.0 9.7 0.00 0.36 0.00 82 1013.5
20260905231552 13 75 0.0 12.9 0.00 0.36 0.00 81 1013.4
20260905230052 13 108 0.0 11.3 0.00 0.56 0.00 80 1013.3
20260905224557 13 79 0.0 1.6 0.00 0.56 0.00 80 1013.2
20260905223047 13 102 0.0 8.0 0.00 0.56 0.00 80 1013.2
20260905221547 13 95 0.0 14.5 0.00 0.56 0.00 81 1013.3
20260905220042 13 110 0.0 14.5 0.00 0.58 0.56 81 1013.4
20260905214540 13 58 1.6 20.9 0.00 0.58 0.56 82 1013.2
20260905213040 13 67 0.0 6.4 0.00 0.58 0.56 85 1013.1
20260905211545 13 58 0.0 0.0 0.00 0.58 0.56 85 1012.8
20260905210055 13 63 0.0 1.6 0.00 0.58 0.56 85 1013.1
20260905204537 13 63 0.0 0.0 0.00 0.58 0.56 86 1013.0
20260905203038 13 89 0.0 0.0 0.00 0.58 0.56 88 1013.1
20260905201537 13 80 0.0 1.6 0.03 0.58 0.56 88 1013.0
20260905200050 13 80 0.0 0.0 0.05 0.58 0.56 87 1013.0
20260905194535 13 103 0.0 4.8 0.15 0.58 0.56 87 1013.1
20260905193030 13 128 0.0 12.9 0.18 0.58 0.56 86 1013.3
20260905191526 13 145 0.0 12.9 0.15 0.56 0.53 85 1013.7
20260905190022 13 100 0.0 17.7 0.10 0.51 0.48 83 1013.8
20260905184517 14 100 0.0 14.5 0.03 0.43 0.41 77 1013.4
20260905183016 14 103 0.0 6.4 0.00 0.41 0.38 78 1012.9
20260905181513 14 106 0.0 0.0 0.03 0.41 0.38 81 1013.0
20260905180012 14 106 0.0 0.0 0.03 0.41 0.38 79 1012.9
20260905174510 15 125 0.0 1.6 0.03 0.41 0.38 76 1013.0
20260905173008 16 38 6.4 40.2 0.03 0.41 0.38 64 1013.0
20260905171508 19 61 0.0 0.0 0.00 0.38 0.36 48 1012.1
20260905170002 19 64 0.0 1.6 0.00 0.38 0.36 47 1012.1
20260905164600 20 82 0.0 12.9 0.00 0.38 0.36 46 1011.8
20260905163101 20 69 0.0 12.9 0.00 0.38 0.36 45 1011.7
20260905161601 20 77 0.0 11.3 0.00 0.38 0.36 45 1011.6
20260905160057 20 79 1.6 19.3 0.00 0.38 0.36 45 1011.4
20260905154557 20 129 1.6 27.4 0.00 0.38 0.36 44 1011.4
20260905153054 20 80 4.8 25.7 0.00 0.38 0.36 46 1011.2
20260905151553 20 71 3.2 24.1 0.00 0.38 0.36 49 1011.2
20260905150052 20 92 6.4 25.7 0.00 0.38 0.36 49 1011.1
20260905144553 20 85 1.6 24.1 0.00 0.38 0.36 51 1011.0
20260905143053 20 101 4.8 19.3 0.00 0.38 0.36 51 1011.0
20260905141548 21 119 12.9 35.4 0.00 0.38 0.36 45 1010.9
20260905140046 21 83 6.4 27.4 0.00 0.38 0.36 44 1010.7
20260905134550 21 115 6.4 29.0 0.00 0.38 0.36 47 1010.6
20260905133044 21 106 8.0 35.4 0.00 0.38 0.36 45 1010.7
20260905131543 21 98 8.0 22.5 0.00 0.38 0.36 46 1010.5
20260905130041 21 120 4.8 22.5 0.00 0.38 0.36 48 1010.4
20260905124547 21 129 11.3 25.7 0.00 0.38 0.36 50 1010.3
20260905123039 21 109 0.0 27.4 0.00 0.38 0.36 52 1010.5
20260905121539 21 98 1.6 24.1 0.00 0.38 0.36 50 1010.4
20260905120039 20 104 3.2 29.0 0.00 0.38 0.36 52 1010.5
20260905114536 21 116 1.6 24.1 0.00 0.38 0.36 50 1010.4
20260905113035 21 112 0.0 24.1 0.00 0.38 0.36 51 1010.3
20260905111529 21 114 1.6 17.7 0.00 0.38 0.36 51 1010.3
20260905110026 21 118 6.4 22.5 0.00 0.38 0.36 54 1010.3
20260905104535 21 56 0.0 22.5 0.00 0.38 0.36 57 1010.2
20260905103025 20 101 0.0 19.3 0.00 0.38 0.36 60 1010.1
20260905101522 20 117 6.4 20.9 0.00 0.38 0.36 60 1010.1
20260905100021 19 138 6.4 16.1 0.00 0.38 0.36 62 1010.1
20260905094521 20 110 4.8 19.3 0.00 0.38 0.36 60 1010.0
20260905093018 18 50 3.2 20.9 0.00 0.38 0.36 61 1010.0
20260905091517 18 112 0.0 20.9 0.00 0.38 0.36 64 1010.1
20260905090020 18 75 0.0 24.1 0.00 0.38 0.36 65 1010.1
20260905084619 18 93 4.8 22.5 0.00 0.38 0.36 64 1010.0
20260905083016 18 102 1.6 24.1 0.00 0.38 0.36 68 1009.8
20260905081510 18 330 1.6 16.1 0.00 0.38 0.36 70 1009.8
20260905080011 18 41 0.0 16.1 0.00 0.43 0.36 71 1009.8
20260905074505 17 129 0.0 14.5 0.00 0.43 0.36 72 1009.6
20260905073010 17 117 0.0 11.3 0.00 0.43 0.36 73 1009.1
20260905071501 17 98 0.0 16.1 0.00 0.43 0.36 74 1009.3
20260905070100 17 133 0.0 16.1 0.00 0.43 0.36 77 1009.1
20260905064559 17 62 0.0 19.3 0.00 0.43 0.36 78 1008.9
20260905063105 17 100 8.0 48.3 0.00 0.43 0.36 76 1008.5
20260905061609 17 89 9.7 27.4 0.00 0.43 0.36 78 1008.4
20260905060050 16 47 0.0 20.9 0.00 0.43 0.36 81 1008.3
20260905054550 16 102 0.0 16.1 0.00 0.43 0.36 82 1008.2
20260905053050 16 35 0.0 19.3 0.00 0.43 0.36 83 1007.8
20260905051546 16 83 1.6 12.9 0.00 0.43 0.36 84 1007.7
20260905050041 16 29 0.0 12.9 0.00 0.43 0.36 85 1007.5
20260905044539 16 92 1.6 16.1 0.00 0.43 0.36 85 1007.3
20260905043103 16 79 0.0 4.8 0.00 0.43 0.36 86 1007.1
20260905041534 16 43 0.0 11.3 0.00 0.43 0.36 86 1006.8
20260905040036 16 96 0.0 12.9 0.00 0.43 0.36 86 1006.8
20260905034531 16 71 0.0 8.0 0.00 0.43 0.36 86 1006.6
20260905033027 16 75 0.0 9.7 0.00 0.43 0.36 86 1006.6
20260905031525 16 88 0.0 22.5 0.00 0.43 0.36 85 1006.2
20260905030023 16 89 4.8 19.3 0.00 0.43 0.36 85 1006.2
20260905024522 16 75 0.0 11.3 0.00 0.43 0.36 85 1005.9
20260905023019 16 70 0.0 19.3 0.03 0.43 0.36 85 1005.9
20260905021517 16 109 0.0 14.5 0.03 0.43 0.36 87 1005.8
20260905020013 17 103 0.0 11.3 0.03 0.43 0.36 87 1005.5
20260905014511 17 108 0.0 8.0 0.05 0.43 0.36 87 1005.6
20260905013007 17 85 0.0 4.8 0.03 0.41 0.33 88 1005.5
20260905011506 17 86 0.0 8.0 0.08 0.41 0.33 87 1005.5
20260905010006 18 74 0.0 6.4 0.10 0.41 0.33 88 1005.5
20260905004502 17 67 0.0 1.6 0.08 0.38 0.30 87 1005.4
20260905003059 18 97 0.0 6.4 0.08 0.38 0.30 86 1005.0
20260905001556 18 82 0.0 4.8 0.03 0.33 0.25 86 1004.9
20260905000054 18 51 0.0 4.8 0.03 0.30 0.23 86 1004.8